Location: Torralba de Arag�n
(41.9349°N, 0.5105°W)
Time: 15:20:01
(UTC+00:00)

Daily predictions for brighter satellites

Satellite Brightness Start Highest point End
(mag) Time Altitude Azimuth Time Altitude Azimuth Time Altitude Azimuth
Sich 1 Rocket 4.2 18:27:39 10° SSE 18:31:44 36° E 18:35:55 10° NNE
SJ 16-02 3.2 18:28:02 10° SW 18:32:04 36° WNW 18:36:09 10° N
NOSS 2-2 (C) 3.0 18:34:22 10° SSW 18:37:50 61° ESE 18:41:30 10° NE
Okean 2 3.4 18:34:25 10° N 18:38:36 84° E 18:42:45 10° S
BREEZE-M DEB (TANK) 3.8 18:36:47 10° S 18:39:26 33° ESE 18:45:36 10° ENE
DELTA 2 R/B (1) 4.2 18:34:59 10° W 18:40:20 49° SSW 18:45:40 10° SE
Ariane Rocket 4.3 18:36:43 10° ESE 18:40:25 21° ENE 18:44:09 10° NNE
Cosmos 1975 3.0 18:36:37 10° S 18:40:42 79° W 18:44:47 10° N
ARGOS 3.7 18:38:30 10° SE 18:43:22 37° ENE 18:48:15 10° N
Milstar 3 Cent rocket 4.2 18:39:48 10° SSW 18:43:37 14° S 18:46:41 10° SE
HJ-1C 3.8 18:41:59 10° SE 18:45:04 40° ENE 18:48:11 10° N
Cosmos 1842 3.3 18:42:47 10° N 18:46:41 83° W 18:50:33 10° S
Okean 2 Rocket 3.7 18:44:32 10° SSE 18:48:37 35° E 18:52:42 10° NNE
CZ-2C R/B 3.7 18:44:25 10° NE 18:48:52 24° E 18:53:20 10° SE
USA 116 3.5 18:45:24 10° NNE 18:48:56 76° ESE 18:52:55 10° S
Abrixas rocket 3.9 18:47:09 10° WNW 18:49:28 22° N 18:51:47 10° NE
CZ-4 R/B 1.9 18:45:43 10° S 18:49:54 68° WSW 18:54:06 10° NNW
Cosmos 1300 Rocket 4.1 18:48:29 10° SSE 18:52:32 37° E 18:56:37 10° NNE
CZ-2C R/B 3.1 18:47:46 10° SSE 18:52:58 76° ENE 18:58:31 10° N
Cosmos 1464 Rocket 4.1 18:49:35 10° SSE 18:55:27 50° E 19:01:22 10° NNE
Cosmos 2298 Rocket 4.4 18:51:12 10° S 18:56:07 40° ESE 19:01:05 10° NE
Cosmos 1707 3.0 18:53:38 10° N 18:57:19 44° ENE 19:00:59 10° SSE
Okean-O 3.7 18:53:56 10° S 18:58:12 48° W 19:02:31 10° NNW
YAOGAN 1 3.1 18:57:02 10° S 19:01:18 62° W 19:05:36 10° NNW
USA 234 4.1 18:56:53 10° ENE 19:02:19 27° SE 19:07:44 10° S
SL-08 RB Rocket 4.3 18:58:30 10° SE 19:02:41 36° ENE 19:06:50 10° N
Cosmos 2263 Rocket 3.3 18:58:16 10° SW 19:03:35 46° WNW 19:08:59 10° NNE
Cosmos 1844 4.4 18:59:34 10° SSE 19:04:29 31° ESE 19:09:23 10° NE
MOS 1 Rocket 3.0 19:00:57 10° NNE 19:05:21 63° E 19:09:35 10° S
Cosmos 372 Rocket 3.9 19:02:02 10° SSW 19:07:16 75° ESE 19:12:30 10° NNE
OBJECT-B 3.2 19:10:31 11° NE 19:10:31 11° NE 19:10:53 10° NE
Cosmos 1844 Rocket 3.0 19:04:42 10° S 19:09:53 42° ESE 19:15:07 10° NE
SJ-6B 3.8 19:10:43 23° E 19:11:41 26° ENE 19:14:49 10° NNE
Cosmos 1867 3.5 19:08:36 10° NNW 19:14:06 84° ENE 19:18:54 14° SE
Cosmos 1536 Rocket 4.1 19:09:58 10° N 19:14:08 38° ENE 19:16:47 19° SE
NOSS 3-4 (A) 4.3 19:13:37 10° SSE 19:18:01 22° ESE 19:18:49 22° E
NOSS 3-4 (C) 4.4 19:13:47 10° SSE 19:18:09 22° ESE 19:18:34 22° ESE
Cosmos 1025 Rocket 3.0 19:15:49 10° N 19:20:10 59° E 19:24:03 13° SSE
Cosmos 1891 Rocket 4.4 19:16:30 10° S 19:22:38 87° E 19:28:44 10° N
Cosmos 1943 4.3 19:19:12 10° NW 19:24:32 44° WSW 19:29:52 10° S
Cosmos 2150 Rocket 4.0 19:20:01 10° S 19:25:19 68° ESE 19:30:44 10° NNE
Cosmos 2151 Rocket 3.5 19:25:49 10° S 19:30:13 72° E 19:34:42 10° NNE
Cosmos 1125 Rocket 3.7 19:25:12 10° S 19:30:18 49° ESE 19:35:25 10° NNE
DMSP B5D2-2 4.2 19:28:55 10° NNE 19:34:04 50° E 19:39:10 10° S
FREGAT/IRIS 4.3 19:35:44 19° NNE 19:35:44 19° NNE 19:36:43 10° N
Cosmos 1626 4.5 19:33:51 10° NNE 19:34:16 12° NE 19:34:16 12° NE
USA 186 1.5 19:37:15 58° SSE 19:37:47 80° ENE 19:41:00 10° N
Lacrosse 5 rocket 4.2 19:38:19 10° NNW 19:39:58 12° N 19:41:38 10° NNE
ATLAS 2AS CENTAUR R/B 3.4 19:33:24 10° S 19:40:25 37° ESE 19:47:29 10° NE
ISS -2.1 19:39:07 10° W 19:42:12 32° NNW 19:43:52 20° NNE
Meteor 1-15 Rocket 4.1 19:40:57 10° S 19:46:30 68° E 19:52:10 10° NNE
CENTAUR R/B 3.4 19:40:40 10° NNW 19:48:35 55° NE 19:52:40 32° ESE
Nadezhda 4 Rocket 3.8 19:42:27 10° N 19:48:36 84° E 19:54:01 14° S
Cosmos 468 4.4 19:43:45 10° NNW 19:49:07 82° ENE 19:51:37 33° SSE
CZ-2C R/B 2.5 19:47:09 10° WSW 19:49:39 23° SSW 19:49:39 23° SSW
IRS-1A Rocket 4.3 19:47:07 17° SSE 19:51:45 88° ENE 19:57:39 10° NNW
Cosmos 2034 Rocket 4.1 19:47:21 10° S 19:53:43 81° W 20:00:07 10° N
ATLAS 3B R/B 4.0 19:50:45 10° NNW 19:56:13 25° NE 19:58:19 21° ENE
H-2A R/B 3.5 19:52:22 10° SSW 19:56:53 35° W 20:01:31 10° NNW
Cosmos 1048 Rocket 4.0 19:54:46 10° NNW 20:00:06 85° WSW 20:02:17 37° SSE
USA 238 DEB 3.8 19:56:23 10° NW 20:03:41 85° NE 20:06:54 38° SE
USA 238 3.8 19:56:29 10° NW 20:03:48 84° NE 20:06:59 39° SE
Resurs 01 Rocket 2.7 20:06:31 31° NE 20:06:31 31° NE 20:09:25 10° N
Cosmos 1674 2.9 20:06:01 10° N 20:09:30 68° NW 20:09:30 68° NW
Cosmos 1805 4.0 20:12:18 45° N 20:12:18 45° N 20:15:05 10° N
Cosmos 1269 Rocket 4.5 20:09:26 10° N 20:14:06 46° NE 20:14:06 46° NE
Cosmos 2082 Rocket 4.1 20:15:11 10° N 20:18:01 16° NE 20:18:01 16° NE
Ariane Rocket 3.7 20:16:05 23° SSW 20:19:00 50° W 20:23:57 10° NNW
Meteor 2-5 Rocket 3.6 20:14:01 10° N 20:19:42 78° E 20:20:23 68° SE
Cosmos 1634 Rocket 3.8 20:23:30 49° S 20:25:19 81° E 20:31:32 10° N
Okean 1 Rocket 3.4 20:25:01 59° WSW 20:25:28 63° W 20:29:57 10° N
Meteor 1-22 Rocket 4.1 20:25:36 73° ESE 20:25:49 74° E 20:31:50 10° NNE
Cosmos 494 Rocket 4.0 20:21:01 10° NNW 20:26:17 78° WSW 20:26:41 72° SSW
CZ-2C R/B 3.6 20:24:02 10° N 20:29:21 48° WNW 20:34:41 10° SW
NOSS 3-2 (A) 4.3 20:23:05 10° NW 20:30:44 66° WSW 20:34:13 38° S
COSMOS 2406 3.9 20:27:34 10° NNW 20:32:01 40° NNE 20:32:01 40° NNE
Cosmos 2285 Rocket 4.4 20:29:09 10° SSW 20:35:22 62° WNW 20:41:40 10° NNE
Meteor 1-24 Rocket 3.7 20:32:48 10° N 20:37:56 76° N 20:37:56 76° N
Resurs 1-3 4.4 20:39:53 48° NW 20:39:53 48° NW 20:43:22 10° NNW
OBJECT-B 3.8 20:43:44 16° NW 20:43:44 16° NW 20:44:33 10° NNW
SPOT 3 Rocket 3.7 20:42:56 67° W 20:42:56 67° W 20:47:48 10° NNW
USA 234 3.2 20:42:12 30° NE 20:45:44 82° NW 20:52:18 10° SW
Cosmos 1844 Rocket 4.5 20:49:05 10° WSW 20:53:53 29° NW 20:58:45 10° N
Cosmos 2026 Rocket 4.2 20:47:47 10° NNW 20:54:06 67° W 20:54:54 61° SW
NOSS 3-2 (C) 4.3 20:58:39 10° NW 21:06:16 62° WSW 21:07:26 57° SSW
Cosmos 2279 Rocket 4.4 21:08:16 58° N 21:08:16 58° N 21:13:17 10° N
NOSS 3-4 (A) 4.1 21:02:27 10° SW 21:12:26 21° NNE 21:14:30 10° NNE
NOSS 3-4 (C) 4.3 21:02:33 10° SW 21:12:46 20° NNE 21:14:36 10° NNE
Cosmos 1833 Rocket 3.9 21:13:29 10° NNW 21:16:48 36° NNW 21:16:48 36° NNW
Lacrosse 5 rocket 4.3 21:18:16 10° NNW 21:19:19 13° N 21:19:19 13° N
ATLAS 2AS CENTAUR R/B 3.5 21:23:22 10° SW 21:31:10 58° NW 21:38:57 10° NNE
CENTAUR R/B 3.9 21:31:37 10° NW 21:39:23 44° WSW 21:39:52 44° WSW
Resurs 01 Rocket 4.5 21:44:06 15° WNW 21:44:06 15° WNW 21:45:13 10° NW
ATLAS 3B R/B 3.5 21:40:51 10° NW 21:45:34 48° NNW 21:45:34 48° NNW
Cosmos 2082 Rocket 4.3 21:57:52 10° NNW 21:59:51 23° NNW 21:59:51 23° NNW
